Le nostre stazioni meteo in Italia

Pubblicità
Il mio iltempo24.it
Capo Palinuro, Italia (16310): Temperatura & dewpoint: 31.05.2020 09:00:00 - 06.06.2020 09:00:00 (CEST)Capo Palinuro, Italia (16310): velocità del vento: 31.05.2020 09:00:00 - 06.06.2020 09:00:00 (CEST)Capo Palinuro, Italia (16310): direzione del vento: 31.05.2020 09:00:00 - 06.06.2020 09:00:00 (CEST)Capo Palinuro, Italia (16310): reduced air pressure: 31.05.2020 09:00:00 - 06.06.2020 09:00:00 (CEST)Capo Palinuro, Italia (16310): visibility: 31.05.2020 09:00:00 - 06.06.2020 09:00:00 (CEST)Capo Palinuro, Italia (16310): ore di luce: 31.05.2020 09:00:00 - 06.06.2020 09:00:00 (CEST)
Data & Tempo tt [°C] td [°C] ff [km/h] ff [kn] dd ppp [hPa] vv [km] sd [min]
06.06.2020 09:00:00 18,2 16,0 5 3 NO 1006,3 20 60
06.06.2020 08:00:00 17,0 14,8 8 4 ONO 1005,7 20 0
06.06.2020 07:00:00 - - - - - - - -
06.06.2020 06:00:00 - - - - - - - -
06.06.2020 05:00:00 - - - - - - - -
06.06.2020 04:00:00 - - - - - - - -
06.06.2020 03:00:00 - - - - - - - -
06.06.2020 02:00:00 - - - - - - - -
06.06.2020 01:00:00 - - - - - - - -
06.06.2020 00:00:00 - - - - - - - -
05.06.2020 23:00:00 - - - - - - - -
05.06.2020 22:00:00 - - - - - - - -
05.06.2020 21:00:00 - - - - - - - -
05.06.2020 20:00:00 15,8 13,7 0 0 N 1005,7 15 0
05.06.2020 19:00:00 16,0 13,8 0 0 N 1005,7 15 0
05.06.2020 18:00:00 16,0 14,0 0 0 N 1005,7 15 0
05.06.2020 17:00:00 16,0 14,0 0 0 N 1006,3 15 0
05.06.2020 16:00:00 15,0 13,0 0 0 N 1006,8 12 0
05.06.2020 15:00:00 16,0 14,0 0 0 N 1007,8 12 0
05.06.2020 14:00:00 16,8 14,8 0 0 N 1007,7 10 0
05.06.2020 13:00:00 - - - - - - - -
05.06.2020 12:00:00 17,2 15,2 0 0 N 1006,6 12 0
05.06.2020 11:00:00 18,0 16,0 0 0 N 1006,6 15 0
05.06.2020 10:00:00 19,0 17,0 0 0 N 1007,3 15 0
05.06.2020 09:00:00 18,8 16,8 0 0 N 1007,5 18 0
05.06.2020 08:00:00 18,8 17,1 0 0 N 1007,5 18 0
05.06.2020 07:00:00 - - - - - - - -
05.06.2020 06:00:00 - - - - - - - -
05.06.2020 05:00:00 - - - - - - - -
05.06.2020 04:00:00 - - - - - - - -
05.06.2020 03:00:00 - - - - - - - -
05.06.2020 02:00:00 - - - - - - - -
05.06.2020 01:00:00 - - - - - - - -
05.06.2020 00:00:00 - - - - - - - -
04.06.2020 23:00:00 - - - - - - - -
04.06.2020 22:00:00 - - - - - - - -
04.06.2020 21:00:00 - - - - - - - -
04.06.2020 20:00:00 21,0 17,8 22 12 SSE 1007,4 20 30
04.06.2020 19:00:00 21,0 17,0 18 10 SSE 1008,4 20 60
04.06.2020 18:00:00 22,0 16,3 0 0 N 1009,1 20 60
04.06.2020 17:00:00 23,0 15,8 4 2 N 1009,3 20 60
04.06.2020 16:00:00 24,0 15,2 4 2 N 1009,8 20 60
04.06.2020 15:00:00 24,0 15,0 0 0 N 1010,2 20 60
04.06.2020 14:00:00 24,2 14,6 0 0 N 1010,2 20 60
04.06.2020 13:00:00 23,0 14,0 0 0 N 1010,3 20 60
04.06.2020 12:00:00 23,6 16,6 0 0 N 1010,3 20 60
04.06.2020 11:00:00 22,8 16,1 0 0 N 1010,3 20 60
04.06.2020 10:00:00 20,8 17,2 0 0 N 1010,5 20 60
04.06.2020 09:00:00 19,8 16,2 9 5 SSE 1010,5 20 60
04.06.2020 08:00:00 19,0 16,0 0 0 N 1010,6 20 60
04.06.2020 07:00:00 - - - - - - - -
04.06.2020 06:00:00 - - - - - - - -
04.06.2020 05:00:00 - - - - - - - -
04.06.2020 04:00:00 - - - - - - - -
04.06.2020 03:00:00 - - - - - - - -
04.06.2020 02:00:00 - - - - - - - -
04.06.2020 01:00:00 - - - - - - - -
04.06.2020 00:00:00 - - - - - - - -
03.06.2020 23:00:00 - - - - - - - -
03.06.2020 22:00:00 - - - - - - - -
03.06.2020 21:00:00 - - - - - - - -
03.06.2020 20:00:00 19,8 19,3 0 0 N 1011,9 20 60
03.06.2020 19:00:00 21,6 19,4 0 0 N 1011,8 20 60
03.06.2020 18:00:00 22,8 20,0 8 4 NNE 1011,9 20 60
03.06.2020 17:00:00 22,8 18,8 8 4 NNE 1012,1 20 60
03.06.2020 16:00:00 23,2 19,8 8 4 NNE 1012,2 20 60
03.06.2020 15:00:00 22,6 19,8 8 4 O 1012,4 20 60
03.06.2020 14:00:00 22,6 20,1 5 3 SSO 1012,5 20 60
03.06.2020 13:00:00 22,8 19,8 9 5 S 1012,5 20 60
03.06.2020 12:00:00 22,2 19,4 8 4 SSE 1012,4 20 60
03.06.2020 11:00:00 22,8 19,2 5 3 S 1012,3 20 60
03.06.2020 10:00:00 21,6 19,4 8 4 S 1012,3 20 60
03.06.2020 09:00:00 20,4 17,4 8 4 SSE 1012,5 20 60
03.06.2020 08:00:00 19,0 16,6 0 0 N 1012,2 20 0
03.06.2020 07:00:00 - - - - - - - -
03.06.2020 06:00:00 - - - - - - - -
03.06.2020 05:00:00 - - - - - - - -
03.06.2020 04:00:00 - - - - - - - -
03.06.2020 03:00:00 - - - - - - - -
03.06.2020 02:00:00 - - - - - - - -
03.06.2020 01:00:00 - - - - - - - -
03.06.2020 00:00:00 - - - - - - - -
02.06.2020 23:00:00 - - - - - - - -
02.06.2020 22:00:00 - - - - - - - -
02.06.2020 21:00:00 - - - - - - - -
02.06.2020 20:00:00 19,4 18,7 8 4 N 1013,1 20 6
02.06.2020 19:00:00 20,0 18,1 8 4 ONO 1013,4 20 42
02.06.2020 18:00:00 21,2 18,6 8 4 N 1013,5 20 60
02.06.2020 17:00:00 21,0 18,9 9 5 N 1014,1 20 24
02.06.2020 16:00:00 21,8 18,8 8 4 NNO 1014,2 20 36
02.06.2020 15:00:00 22,0 18,4 9 5 ENE 1014,3 20 48
02.06.2020 14:00:00 24,0 18,4 9 5 NNE 1014,2 20 60
02.06.2020 13:00:00 24,0 16,8 9 5 NO 1014,3 20 60
02.06.2020 12:00:00 22,2 15,8 9 5 SO 1014,5 20 60
02.06.2020 11:00:00 21,8 16,1 11 6 S 1014,5 20 60
02.06.2020 10:00:00 20,8 15,6 5 3 S 1014,5 20 60
02.06.2020 09:00:00 19,8 14,8 0 0 N 1014,6 20 60
02.06.2020 08:00:00 18,8 14,7 5 3 NNE 1014,6 20 0
02.06.2020 07:00:00 - - - - - - - -
02.06.2020 06:00:00 - - - - - - - -
02.06.2020 05:00:00 - - - - - - - -
02.06.2020 04:00:00 - - - - - - - -
02.06.2020 03:00:00 - - - - - - - -
02.06.2020 02:00:00 - - - - - - - -
02.06.2020 01:00:00 - - - - - - - -
02.06.2020 00:00:00 - - - - - - - -
01.06.2020 23:00:00 - - - - - - - -
01.06.2020 22:00:00 - - - - - - - -
01.06.2020 21:00:00 - - - - - - - -
01.06.2020 20:00:00 19,0 15,9 11 6 OSO 1014,6 20 60
01.06.2020 19:00:00 20,0 17,4 9 5 SO 1015,6 20 60
01.06.2020 18:00:00 19,6 17,2 11 6 OSO 1015,6 20 24
01.06.2020 17:00:00 20,0 15,4 11 6 NNO 1015,6 20 30
01.06.2020 16:00:00 21,6 15,0 11 6 ESE 1015,5 15 24
01.06.2020 15:00:00 20,6 17,0 18 10 NNO 1015,5 20 36
01.06.2020 14:00:00 19,4 17,4 16 9 O 1015,6 15 24
01.06.2020 13:00:00 19,4 17,4 13 7 O 1015,6 20 18
01.06.2020 12:00:00 21,0 17,4 13 7 O 1015,3 20 48
01.06.2020 11:00:00 21,0 17,4 11 6 NNO 1015,1 20 48
01.06.2020 10:00:00 20,0 16,0 13 7 NNO 1014,8 20 60
01.06.2020 09:00:00 16,6 13,1 9 5 O 1014,9 20 30
01.06.2020 08:00:00 15,8 14,3 13 7 NNO 1014,9 15 12
01.06.2020 07:00:00 - - - - - - - -
01.06.2020 06:00:00 - - - - - - - -
01.06.2020 05:00:00 - - - - - - - -
01.06.2020 04:00:00 - - - - - - - -
01.06.2020 03:00:00 - - - - - - - -
01.06.2020 02:00:00 - - - - - - - -
01.06.2020 01:00:00 - - - - - - - -
01.06.2020 00:00:00 - - - - - - - -
31.05.2020 23:00:00 - - - - - - - -
31.05.2020 22:00:00 - - - - - - - -
31.05.2020 21:00:00 - - - - - - - -
31.05.2020 20:00:00 18,2 17,4 11 6 ONO 1014,7 15 -
31.05.2020 19:00:00 19,8 16,7 16 9 NNO 1014,6 15 30
31.05.2020 18:00:00 21,0 16,4 13 7 SSE 1014,2 15 60
31.05.2020 17:00:00 21,0 -16,1 11 6 SE 1014,3 15 48
31.05.2020 16:00:00 21,4 16,4 9 5 SSE 1014,1 15 30
31.05.2020 15:00:00 22,0 16,3 13 7 S 1014,1 12 12
31.05.2020 14:00:00 20,6 16,6 16 9 SO 1014,1 15 30
31.05.2020 13:00:00 23,0 18,1 11 6 S 1013,7 12 0
31.05.2020 12:00:00 22,6 17,7 15 8 SSE 1013,7 15 12
31.05.2020 11:00:00 21,2 17,8 15 8 ESE 1013,8 15 60
31.05.2020 10:00:00 20,2 17,4 9 5 SE 1013,7 15 60
31.05.2020 09:00:00 18,0 15,4 11 6 SSO 1013,9 15 60

tt = Temperatura
td = dewpoint
ff = velocità del vento
dd = direzione del vento
ppp = reduced air pressure
vv = visibility
sd = ore di luce

Stazioni seguenti

WeatherPro
AMSI
MeteoEarth